Forecast Directory
U.S. Alerts
El Dorado Weather Logo
U.S. Radar Loop Conditions Map

U.S. Color Satellite North America Color Infrared Animated Satellite Loop

Interactive Wx Map Live U.S. Google Map Radar Thumbnail Image

US Precipitation 1 day, 24 hour precipitation map

US Temperatures US Conditions Map

US Climate Data US Conditions Map


NOAA NWS Hourly Roundups by Site
Regional Weather Roundup for Sacramento, CA
Select Site:  

442
ASUS46 KSTO 220815
RWRCA

NORTHERN AND CENTRAL CA REGIONAL WEATHER ROUNDUP
NATIONAL WEATHER SERVICE SACRAMENTO CA
1200 AM PST WED JAN 22 2020

NOTE: FAIR INDICATES FEW OR NO CLOUDS BELOW 12,000 FEET WITH NO
SIGNIFICANT WEATHER AND/OR OBSTRUCTIONS TO VISIBILITY.

CAZ001-003-220900-
NORTHWEST AREA

CITY           SKY/WX    TMP DP  RH WIND       PRES   REMARKS
CRESCENT CITY  CLOUDY    49  43  80 S12       30.16R
UKIAH          FOG       45  44  97 CALM      30.19S VSB 1/2
$$

CAZ006-505>513-220900-
BAY AREA

CITY           SKY/WX    TMP DP  RH WIND       PRES   REMARKS
SANTA ROSA     FOG       47  47 100 CALM      30.19S VSB 1/4
SAN RAFAEL     N/A       MM  MM  MM MISG
NAPA           CLOUDY    51  49  92 SW6       30.19S
CONCORD        CLOUDY    54  51  90 S5        30.19R
OAKLAND CITY   N/A       53  MM  MM MISG
OAKLAND        CLOUDY    54  51  90 CALM      30.20R
SAN FRAN CITY  N/A       53  MM  99 MISG
SAN FRAN ARPT  MOCLDY    55  50  83 E6        30.18S
LIVERMORE      CLOUDY    53  50  89 W5        30.18S
HAYWARD        CLOUDY    55  49  80 S7        30.18S
SAN JOSE ARPT  MOCLDY    55  49  80 CALM      30.19S
$$
CAZ034-037-514>518-220900-
CENTRAL COAST

CITY           SKY/WX    TMP DP  RH WIND       PRES   REMARKS
WATSONVILLE    LGT RAIN  54  52  93 N3        30.21S FOG
MONTEREY       CLOUDY    55  52  89 CALM      30.20F
SAN LUIS OBISP PTCLDY    45  42  89 E3        30.24S
SANTA MARIA    CLEAR     46  43  89 CALM      30.25R
$$
CAZ015-016-220900-
NORTHERN SACRAMENTO VALLEY

CITY           SKY/WX    TMP DP  RH WIND       PRES   REMARKS
REDDING        CLOUDY    49  47  93 CALM      30.14R FOG
RED BLUFF      CLOUDY    50  49  96 CALM      30.16R FOG
OROVILLE       CLOUDY    53  48  83 SE10      30.19S
$$
CAZ016>018-220900-
SOUTHERN SACRAMENTO VALLEY

CITY           SKY/WX    TMP DP  RH WIND       PRES   REMARKS
AUBURN         CLOUDY    48  48 100 SE7       30.19S FOG
BEALE AFB      CLOUDY    52  52 100 SE8       30.17F
LINCOLN        CLOUDY    52  50  93 S9        30.19S
MARYSVILLE     CLOUDY    52  50  93 SE9       30.19S
SAC INTL ARPT  CLOUDY    53  50  89 S8        30.19R
MATHER AIRPORT NOT AVBL
DOWNTOWN SAC   N/A       53  MM  MM MISG
SAC EXEC ARPT  CLOUDY    53  51  93 VRB3      30.20R
VACAVILLE      CLOUDY    53  50  89 S7        30.20R
TRAVIS AFB     CLOUDY    54  50  87 S5        30.19S
$$
CAZ019>021-220900-
SAN JOAQUIN VALLEY

CITY           SKY/WX    TMP DP  RH WIND       PRES   REMARKS
STOCKTON       LGT RAIN  55  50  83 SE9       30.19S
MODESTO        CLOUDY    56  48  74 SE8       30.19S
MERCED         CLOUDY    54  48  80 CALM      30.21R
LEMOORE        MOCLDY    48  45  89 SE3       30.22S FOG
FRESNO         CLOUDY    54  46  74 CALM      30.21S
HANFORD        MOCLDY    47  45  93 S3        30.22S FOG
PORTERVILLE    CLEAR     43  42  97 CALM      30.22F
BAKERSFIELD    CLEAR     47  41  80 CALM      30.20F
$$
CAZ011-012-071-220900-
NORTHERN MOUNTAINS

CITY           SKY/WX    TMP DP  RH WIND       PRES   REMARKS
YREKA          CLOUDY    34  31  88 CALM      30.12R
MOUNT SHASTA   FOG       34  34 100 CALM      30.10R VSB 1/4
ALTURAS        MIX PCPN  32  32 100 CALM      30.08F FOG
$$
CAZ011-012-071-220900-
SIERRA NEVADA MTNS

CITY           SKY/WX    TMP DP  RH WIND       PRES   REMARKS
BLUE CANYON    LGT RAIN  36  35  96 S12G17    30.16F VSB 1/4 WCI  28
TRUCKEE        LGT RAIN  36  32  87 SW9G16    30.13S WCI  29
TAHOE VLY ARPT CLOUDY    34  32  92 CALM      30.13S
MAMMOTH LAKES  CLOUDY    37  25  60 NW12      30.15S WCI  30
$$



 

View Past Reports for Sacramento, CA.

Products Courtesy of NOAA-NWS
NWS Information Parsing Script by Ken True at Saratoga Weather - Script by SE Lincoln Weather.



Contact Us | Mobile
Never base any life decisions on weather information from this site or anywhere over the Internet.
Site is dedicated to our Lord & Savior Jesus Christ | Random Jesus Quotes

Copyright © 2020 El Dorado Weather, Inc. | Site Designed By:  El Dorado Weather